This demonstration page uses our WeatherBlox Daily Observations layout. Learn more.

Left ArrowRight Arrow

36.19886, -115.1175

Hourly Observations for July 29, 2021

Temp ( °F °C ) Dew Point ( °F °C ) Humidity (%) Winds ( mph kmh ) Pressure ( in mb ) Visibility ( mi km ) Precip ( " mm )
12:53 am 00:53 Clear 94 34.4 54 12.2 26 26 NNW 8 13 29.88 1012 10 16 N/A
1:53 am 01:53 Mostly Clear 96 35.6 50 10 21 21 NNW 7 11 29.86 1011 10 16 N/A
2:53 am 02:53 Clear 94 34.4 52 11.1 24 24 N N/A 29.85 1011 10 16 N/A
3:53 am 03:53 Clear 93 33.9 52 11.1 25 25 NW 9 15 29.85 1011 10 16 N/A
4:53 am 04:53 Clear 93 33.9 52 11.1 25 25 NNW 7 11 29.86 1011 10 16 N/A
5:53 am 05:53 Sunny 92 33.3 52 11.1 26 26 N 7 11 29.88 1012 10 16 N/A
6:53 am 06:53 Sunny 92 33.3 53 11.7 27 27 N N/A 29.90 1012 10 16 N/A
7:53 am 07:53 Sunny 94 34.4 53 11.7 25 25 WNW 6 9 29.91 1013 10 16 N/A
8:53 am 08:53 Sunny 97 36.1 56 13.3 25 25 E 8 13 29.91 1013 10 16 N/A
9:53 am 09:53 Sunny 98 36.7 55 12.8 24 24 ENE 8 13 29.90 1013 10 16 N/A
10:53 am 10:53 Sunny 99 37.2 54 12.2 22 22 ESE 9 15 29.90 1013 10 16 N/A
11:53 am 11:53 Sunny 100 37.8 51 10.6 19 19 VRB 5 7 29.88 1012 10 16 N/A
12:53 pm 12:53 Sunny 102 38.9 52 11.1 19 19 VRB 5 7 29.85 1011 10 16 N/A
1:53 pm 13:53 Sunny 105 40.6 51 10.6 16 16 VRB 3 6 29.81 1010 10 16 N/A
2:53 pm 14:53 Sunny 105 40.6 51 10.6 16 16 S 7 11 29.79 1009 10 16 N/A
3:53 pm 15:53 Sunny 106 41.1 50 10 15 15 E 3 6 29.76 1008 10 16 N/A
4:53 pm 16:53 Sunny 106 41.1 50 10 15 15 VRB 7 11 29.74 1007 10 16 N/A
5:53 pm 17:53 Sunny 107 41.7 50 10 15 15 ENE 6 9 29.72 1007 10 16 N/A
6:53 pm 18:53 Sunny 106 41.1 47 8.3 14 14 ESE 8 13 29.75 1008 10 16 N/A
7:27 pm 19:27 Mostly Cloudy with Heavy Rain 83 28.3 67 19.4 59 59 E 25 41 29.77 1008 1 2 N/A
7:30 pm 19:30 Mostly Cloudy with Heavy Rain 84 28.9 67 19.4 57 57 E 20 31 29.77 1008 10 16 N/A
7:53 pm 19:53 Cloudy with Thunderstorms 84 28.9 67 19.4 57 57 ENE 16 26 29.88 1012 6 10 N/A
8:03 pm 20:03 Mostly Cloudy with Rain 86 30 66 18.9 51 51 N 10 17 29.78 1008 7 11 N/A
8:17 pm 20:17 Mostly Cloudy with Nearby Thunderstorms 86 30 68 20 55 55 NW 14 22 29.79 1009 10 16 N/A
8:33 pm 20:33 Mostly Cloudy with Light Rain 83 28.3 66 18.9 57 57 NW 21 33 29.82 1010 10 16 N/A
8:53 pm 20:53 Mostly Cloudy with Light Rain 83 28.3 67 19.4 59 59 NW 18 30 29.92 1013 10 16 N/A
9:53 pm 21:53 Mostly Clear 84 28.9 65 18.3 53 53 NW 10 17 29.97 1015 10 16 N/A
10:53 pm 22:53 Mostly Clear 84 28.9 63 17.2 49 49 NNW 12 19 29.98 1015 10 16 N/A
11:53 pm 23:53 Mostly Cloudy 84 28.9 64 17.8 51 51 ENE 8 13 29.98 1015 10 16 N/A

Powered by AerisWeather